owner,sensor,date,latitude,longitude,vertical_datum,wind_speed,wind_to_direction,wind_speed_of_gust,qcFlag 
COMPS,ioos:station:USF.COMPS:SHP:1,2016-01-01T04:00:00Z,30.0600,-84.2910,10.0,4.81,350.69,6.56,'1111122,1111122,1111122' 
COMPS,ioos:station:USF.COMPS:SHP:1,2016-01-01T04:06:00Z,30.0600,-84.2910,10.0,3.47,358.47,5.39,'1111122,1111122,1111122' 
COMPS,ioos:station:USF.COMPS:SHP:1,2016-01-01T04:12:00Z,30.0600,-84.2910,10.0,4.17,354.47,6.27,'1111122,1111122,1111122' 
COMPS,ioos:station:USF.COMPS:SHP:1,2016-01-01T04:18:00Z,30.0600,-84.2910,10.0,3.57,359.72,4.8,'1111122,1111122,1111122' 
COMPS,ioos:station:USF.COMPS:SHP:1,2016-01-01T04:24:00Z,30.0600,-84.2910,10.0,3.7,9.13,5.09,'1111122,1111122,1111122' 
COMPS,ioos:station:USF.COMPS:SHP:1,2016-01-01T04:30:00Z,30.0600,-84.2910,10.0,4.38,3.03,6.76,'1111122,1111122,1111122' 
COMPS,ioos:station:USF.COMPS:SHP:1,2016-01-01T04:36:00Z,30.0600,-84.2910,10.0,3.88,2.38,5.48,'1111122,1111122,1111122' 
COMPS,ioos:station:USF.COMPS:SHP:1,2016-01-01T04:42:00Z,30.0600,-84.2910,10.0,3.87,9.77,6.07,'1111122,1111122,1111122' 
COMPS,ioos:station:USF.COMPS:SHP:1,2016-01-01T04:48:00Z,30.0600,-84.2910,10.0,3.58,6.91,4.8,'1111122,1111122,1111122' 
COMPS,ioos:station:USF.COMPS:SHP:1,2016-01-01T04:54:00Z,30.0600,-84.2910,10.0,3.71,8.66,4.7,'1111122,1111122,1111122' 
COMPS,ioos:station:USF.COMPS:SHP:1,2016-01-01T05:00:00Z,30.0600,-84.2910,10.0,3.28,358.38,5.29,'1111122,1111122,1111122' 
COMPS,ioos:station:USF.COMPS:SHP:1,2016-01-01T05:06:00Z,30.0600,-84.2910,10.0,3.15,353.14,4.6,'1111122,1111122,1111122' 
COMPS,ioos:station:USF.COMPS:SHP:1,2016-01-01T05:12:00Z,30.0600,-84.2910,10.0,3.55,352.01,5.48,'1111122,1111122,1111122' 
COMPS,ioos:station:USF.COMPS:SHP:1,2016-01-01T05:18:00Z,30.0600,-84.2910,10.0,3.29,348.25,4.6,'1111122,1111122,1111122' 
COMPS,ioos:station:USF.COMPS:SHP:1,2016-01-01T05:24:00Z,30.0600,-84.2910,10.0,3.05,347.26,4.11,'1111122,1111122,1111122' 
COMPS,ioos:station:USF.COMPS:SHP:1,2016-01-01T05:30:00Z,30.0600,-84.2910,10.0,3.42,349.78,5.19,'1111122,1111122,1111122' 
COMPS,ioos:station:USF.COMPS:SHP:1,2016-01-01T05:36:00Z,30.0600,-84.2910,10.0,4.02,340.25,5.39,'1111122,1111122,1111122' 
COMPS,ioos:station:USF.COMPS:SHP:1,2016-01-01T05:42:00Z,30.0600,-84.2910,10.0,3.69,348.18,5.39,'1111122,1111122,1111122' 
COMPS,ioos:station:USF.COMPS:SHP:1,2016-01-01T05:48:00Z,30.0600,-84.2910,10.0,3.4,348.55,5.39,'1111122,1111122,1111122' 
COMPS,ioos:station:USF.COMPS:SHP:1,2016-01-01T05:54:00Z,30.0600,-84.2910,10.0,2.91,352.38,4.11,'1111122,1111122,1111122' 
COMPS,ioos:station:USF.COMPS:SHP:1,2016-01-01T06:00:00Z,30.0600,-84.2910,10.0,3.32,346.06,4.8,'1111122,1111122,1111122' 
COMPS,ioos:station:USF.COMPS:SHP:1,2016-01-01T06:06:00Z,30.0600,-84.2910,10.0,3.02,341.85,4.41,'1111122,1111122,1111122' 
COMPS,ioos:station:USF.COMPS:SHP:1,2016-01-01T06:12:00Z,30.0600,-84.2910,10.0,3.39,346.79,4.6,'1111122,1111122,1111122' 
COMPS,ioos:station:USF.COMPS:SHP:1,2016-01-01T06:18:00Z,30.0600,-84.2910,10.0,4.75,339.1,6.95,'1111122,1111122,1111122' 
COMPS,ioos:station:USF.COMPS:SHP:1,2016-01-01T06:24:00Z,30.0600,-84.2910,10.0,4.66,343.37,6.56,'1111122,1111122,1111122' 
COMPS,ioos:station:USF.COMPS:SHP:1,2016-01-01T06:30:00Z,30.0600,-84.2910,10.0,4.43,354.93,6.07,'1111122,1111122,1111122' 
COMPS,ioos:station:USF.COMPS:SHP:1,2016-01-01T06:36:00Z,30.0600,-84.2910,10.0,4.28,359.24,5.87,'1111122,1111122,1111122' 
COMPS,ioos:station:USF.COMPS:SHP:1,2016-01-01T06:42:00Z,30.0600,-84.2910,10.0,4.06,6.41,5.78,'1111122,1111122,1111122' 
COMPS,ioos:station:USF.COMPS:SHP:1,2016-01-01T06:48:00Z,30.0600,-84.2910,10.0,3.57,11.78,5.29,'1111122,1111122,1111122' 
COMPS,ioos:station:USF.COMPS:SHP:1,2016-01-01T06:54:00Z,30.0600,-84.2910,10.0,3.74,6.55,5.48,'1111122,1111122,1111122' 
COMPS,ioos:station:USF.COMPS:SHP:1,2016-01-01T07:00:00Z,30.0600,-84.2910,10.0,3.9,5.81,5.48,'1111122,1111122,1111122' 
COMPS,ioos:station:USF.COMPS:SHP:1,2016-01-01T07:06:00Z,30.0600,-84.2910,10.0,3.94,7.88,6.07,'1111122,1111122,1111122' 
COMPS,ioos:station:USF.COMPS:SHP:1,2016-01-01T07:12:00Z,30.0600,-84.2910,10.0,3.21,8.47,5.19,'1111122,1111122,1111122' 
COMPS,ioos:station:USF.COMPS:SHP:1,2016-01-01T07:18:00Z,30.0600,-84.2910,10.0,3.43,5.67,4.8,'1111122,1111122,1111122' 
COMPS,ioos:station:USF.COMPS:SHP:1,2016-01-01T07:24:00Z,30.0600,-84.2910,10.0,3.06,6.23,4.8,'1111122,1111122,1111122' 
COMPS,ioos:station:USF.COMPS:SHP:1,2016-01-01T07:30:00Z,30.0600,-84.2910,10.0,3.26,4.28,5.39,'1111122,1111122,1111122' 
COMPS,ioos:station:USF.COMPS:SHP:1,2016-01-01T07:36:00Z,30.0600,-84.2910,10.0,2.64,3.69,4.31,'1111122,1111122,1111122' 
COMPS,ioos:station:USF.COMPS:SHP:1,2016-01-01T07:42:00Z,30.0600,-84.2910,10.0,2.39,14.2,4.6,'1111122,1111122,1111122' 
COMPS,ioos:station:USF.COMPS:SHP:1,2016-01-01T07:48:00Z,30.0600,-84.2910,10.0,2.84,3.01,4.9,'1111122,1111122,1111122' 
COMPS,ioos:station:USF.COMPS:SHP:1,2016-01-01T07:54:00Z,30.0600,-84.2910,10.0,3.5,5.99,5.39,'1111122,1111122,1111122' 
COMPS,ioos:station:USF.COMPS:SHP:1,2016-01-01T08:00:00Z,30.0600,-84.2910,10.0,3.47,8.98,5.29,'1111122,1111122,1111122' 
COMPS,ioos:station:USF.COMPS:SHP:1,2016-01-01T08:06:00Z,30.0600,-84.2910,10.0,3.92,1.92,5.87,'1111122,1111122,1111122' 
COMPS,ioos:station:USF.COMPS:SHP:1,2016-01-01T08:12:00Z,30.0600,-84.2910,10.0,3.98,10.81,6.27,'1111122,1111122,1111122' 
COMPS,ioos:station:USF.COMPS:SHP:1,2016-01-01T08:18:00Z,30.0600,-84.2910,10.0,3.68,8.95,5.58,'1111122,1111122,1111122' 
COMPS,ioos:station:USF.COMPS:SHP:1,2016-01-01T08:24:00Z,30.0600,-84.2910,10.0,3.2,14.57,4.7,'1111122,1111122,1111122' 
COMPS,ioos:station:USF.COMPS:SHP:1,2016-01-01T08:30:00Z,30.0600,-84.2910,10.0,2.85,12.76,4.41,'1111122,1111122,1111122' 
COMPS,ioos:station:USF.COMPS:SHP:1,2016-01-01T08:36:00Z,30.0600,-84.2910,10.0,3.32,5.3,4.8,'1111122,1111122,1111122' 
COMPS,ioos:station:USF.COMPS:SHP:1,2016-01-01T08:42:00Z,30.0600,-84.2910,10.0,3.41,339.78,5.39,'1111122,1111122,1111122' 
COMPS,ioos:station:USF.COMPS:SHP:1,2016-01-01T08:48:00Z,30.0600,-84.2910,10.0,2.95,343.02,3.92,'1111122,1111122,1111122' 
COMPS,ioos:station:USF.COMPS:SHP:1,2016-01-01T08:54:00Z,30.0600,-84.2910,10.0,2.45,359.47,3.43,'1111122,1111122,1111122' 
COMPS,ioos:station:USF.COMPS:SHP:1,2016-01-01T09:00:00Z,30.0600,-84.2910,10.0,2.93,7.16,3.82,'1111122,1111122,1111122' 
COMPS,ioos:station:USF.COMPS:SHP:1,2016-01-01T09:06:00Z,30.0600,-84.2910,10.0,2.68,5.3,4.11,'1111122,1111122,1111122' 
COMPS,ioos:station:USF.COMPS:SHP:1,2016-01-01T09:12:00Z,30.0600,-84.2910,10.0,2.79,9.3,4.5,'1111122,1111122,1111122' 
COMPS,ioos:station:USF.COMPS:SHP:1,2016-01-01T09:18:00Z,30.0600,-84.2910,10.0,2.59,14.64,4.21,'1111122,1111122,1111122' 
COMPS,ioos:station:USF.COMPS:SHP:1,2016-01-01T09:24:00Z,30.0600,-84.2910,10.0,2.86,15.37,4.7,'1111122,1111122,1111122' 
COMPS,ioos:station:USF.COMPS:SHP:1,2016-01-01T09:30:00Z,30.0600,-84.2910,10.0,3.19,15.67,4.8,'1111122,1111122,1111122' 
COMPS,ioos:station:USF.COMPS:SHP:1,2016-01-01T09:36:00Z,30.0600,-84.2910,10.0,3.54,6.84,5.09,'1111122,1111122,1111122' 
COMPS,ioos:station:USF.COMPS:SHP:1,2016-01-01T09:42:00Z,30.0600,-84.2910,10.0,3.52,14.23,5.19,'1111122,1111122,1111122' 
COMPS,ioos:station:USF.COMPS:SHP:1,2016-01-01T09:48:00Z,30.0600,-84.2910,10.0,2.54,21.54,4.31,'1111122,1111122,1111122' 
COMPS,ioos:station:USF.COMPS:SHP:1,2016-01-01T09:54:00Z,30.0600,-84.2910,10.0,3.2,17.3,4.7,'1111122,1111122,1111122' 
COMPS,ioos:station:USF.COMPS:SHP:1,2016-01-01T10:00:00Z,30.0600,-84.2910,10.0,3.24,14.65,4.6,'1111122,1111122,1111122' 
COMPS,ioos:station:USF.COMPS:SHP:1,2016-01-01T10:06:00Z,30.0600,-84.2910,10.0,3.0,6.96,4.41,'1111122,1111122,1111122' 
COMPS,ioos:station:USF.COMPS:SHP:1,2016-01-01T10:12:00Z,30.0600,-84.2910,10.0,3.22,6.04,4.11,'1111122,1111122,1111122' 
COMPS,ioos:station:USF.COMPS:SHP:1,2016-01-01T10:18:00Z,30.0600,-84.2910,10.0,3.25,14.29,4.9,'1111122,1111122,1111122' 
COMPS,ioos:station:USF.COMPS:SHP:1,2016-01-01T10:24:00Z,30.0600,-84.2910,10.0,2.83,14.97,4.9,'1111122,1111122,1111122' 
COMPS,ioos:station:USF.COMPS:SHP:1,2016-01-01T10:30:00Z,30.0600,-84.2910,10.0,2.8,9.43,4.01,'1111122,1111122,1111122' 
COMPS,ioos:station:USF.COMPS:SHP:1,2016-01-01T10:36:00Z,30.0600,-84.2910,10.0,2.95,9.5,4.5,'1111122,1111122,1111122' 
COMPS,ioos:station:USF.COMPS:SHP:1,2016-01-01T10:42:00Z,30.0600,-84.2910,10.0,2.74,13.98,4.41,'1111122,1111122,1111122' 
COMPS,ioos:station:USF.COMPS:SHP:1,2016-01-01T10:48:00Z,30.0600,-84.2910,10.0,2.57,13.96,4.11,'1111122,1111122,1111122' 
COMPS,ioos:station:USF.COMPS:SHP:1,2016-01-01T10:54:00Z,30.0600,-84.2910,10.0,2.46,21.84,4.41,'1111122,1111122,1111122' 
COMPS,ioos:station:USF.COMPS:SHP:1,2016-01-01T11:00:00Z,30.0600,-84.2910,10.0,2.88,12.54,4.31,'1111122,1111122,1111122' 
COMPS,ioos:station:USF.COMPS:SHP:1,2016-01-01T11:06:00Z,30.0600,-84.2910,10.0,2.4,8.1,3.82,'1111122,1111122,1111122' 
COMPS,ioos:station:USF.COMPS:SHP:1,2016-01-01T11:12:00Z,30.0600,-84.2910,10.0,2.15,3.62,3.33,'1111122,1111122,1111122' 
COMPS,ioos:station:USF.COMPS:SHP:1,2016-01-01T11:18:00Z,30.0600,-84.2910,10.0,1.55,1.98,3.62,'1111122,1111122,1111122' 
COMPS,ioos:station:USF.COMPS:SHP:1,2016-01-01T11:24:00Z,30.0600,-84.2910,10.0,2.26,11.31,3.52,'1111122,1111122,1111122' 
COMPS,ioos:station:USF.COMPS:SHP:1,2016-01-01T11:30:00Z,30.0600,-84.2910,10.0,2.77,10.05,4.01,'1111122,1111122,1111122' 
COMPS,ioos:station:USF.COMPS:SHP:1,2016-01-01T11:36:00Z,30.0600,-84.2910,10.0,2.97,355.53,4.31,'1111122,1111122,1111122' 
COMPS,ioos:station:USF.COMPS:SHP:1,2016-01-01T11:42:00Z,30.0600,-84.2910,10.0,2.88,0.29,3.92,'1111122,1111122,1111122' 
COMPS,ioos:station:USF.COMPS:SHP:1,2016-01-01T11:48:00Z,30.0600,-84.2910,10.0,3.87,6.44,5.87,'1111122,1111122,1111122' 
COMPS,ioos:station:USF.COMPS:SHP:1,2016-01-01T11:54:00Z,30.0600,-84.2910,10.0,4.44,6.41,7.15,'1111122,1111122,1111122' 
COMPS,ioos:station:USF.COMPS:SHP:1,2016-01-01T12:00:00Z,30.0600,-84.2910,10.0,3.51,353.32,5.09,'1111122,1111122,1111122' 
COMPS,ioos:station:USF.COMPS:SHP:1,2016-01-01T12:06:00Z,30.0600,-84.2910,10.0,3.88,355.71,5.68,'1111122,1111122,1111122' 
COMPS,ioos:station:USF.COMPS:SHP:1,2016-01-01T12:12:00Z,30.0600,-84.2910,10.0,3.81,5.57,6.17,'1111122,1111122,1111122' 
COMPS,ioos:station:USF.COMPS:SHP:1,2016-01-01T12:18:00Z,30.0600,-84.2910,10.0,4.43,7.96,6.07,'1111122,1111122,1111122' 
COMPS,ioos:station:USF.COMPS:SHP:1,2016-01-01T12:24:00Z,30.0600,-84.2910,10.0,2.98,7.75,4.31,'1111122,1111122,1111122' 
COMPS,ioos:station:USF.COMPS:SHP:1,2016-01-01T12:30:00Z,30.0600,-84.2910,10.0,2.88,8.4,4.6,'1111122,1111122,1111122' 
COMPS,ioos:station:USF.COMPS:SHP:1,2016-01-01T12:36:00Z,30.0600,-84.2910,10.0,2.96,11.8,4.7,'1111122,1111122,1111122' 
COMPS,ioos:station:USF.COMPS:SHP:1,2016-01-01T12:42:00Z,30.0600,-84.2910,10.0,2.25,11.57,3.52,'1111122,1111122,1111122' 
COMPS,ioos:station:USF.COMPS:SHP:1,2016-01-01T12:48:00Z,30.0600,-84.2910,10.0,2.43,8.23,3.43,'1111122,1111122,1111122' 
COMPS,ioos:station:USF.COMPS:SHP:1,2016-01-01T12:54:00Z,30.0600,-84.2910,10.0,2.42,12.9,3.92,'1111122,1111122,1111122' 
COMPS,ioos:station:USF.COMPS:SHP:1,2016-01-01T13:00:00Z,30.0600,-84.2910,10.0,3.11,22.95,5.09,'1111122,1111122,1111122' 
COMPS,ioos:station:USF.COMPS:SHP:1,2016-01-01T13:06:00Z,30.0600,-84.2910,10.0,3.24,16.34,4.8,'1111122,1111122,1111122' 
COMPS,ioos:station:USF.COMPS:SHP:1,2016-01-01T13:12:00Z,30.0600,-84.2910,10.0,3.59,9.88,4.7,'1111122,1111122,1111122' 
COMPS,ioos:station:USF.COMPS:SHP:1,2016-01-01T13:18:00Z,30.0600,-84.2910,10.0,2.36,347.5,3.33,'1111122,1111122,1111122' 
COMPS,ioos:station:USF.COMPS:SHP:1,2016-01-01T13:24:00Z,30.0600,-84.2910,10.0,2.56,359.38,4.21,'1111122,1111122,1111122' 
COMPS,ioos:station:USF.COMPS:SHP:1,2016-01-01T13:30:00Z,30.0600,-84.2910,10.0,3.41,0.79,4.7,'1111122,1111122,1111122' 
COMPS,ioos:station:USF.COMPS:SHP:1,2016-01-01T13:36:00Z,30.0600,-84.2910,10.0,3.78,358.3,5.48,'1111122,1111122,1111122' 
COMPS,ioos:station:USF.COMPS:SHP:1,2016-01-01T13:42:00Z,30.0600,-84.2910,10.0,3.34,0.91,4.8,'1111122,1111122,1111122' 
COMPS,ioos:station:USF.COMPS:SHP:1,2016-01-01T13:48:00Z,30.0600,-84.2910,10.0,3.98,2.56,5.78,'1111122,1111122,1111122' 
COMPS,ioos:station:USF.COMPS:SHP:1,2016-01-01T13:54:00Z,30.0600,-84.2910,10.0,3.28,357.19,6.07,'1111122,1111122,1111122' 
COMPS,ioos:station:USF.COMPS:SHP:1,2016-01-01T14:00:00Z,30.0600,-84.2910,10.0,4.03,5.37,6.27,'1111122,1111122,1111122' 
COMPS,ioos:station:USF.COMPS:SHP:1,2016-01-01T14:06:00Z,30.0600,-84.2910,10.0,4.11,4.2,6.37,'1111122,1111122,1111122' 
COMPS,ioos:station:USF.COMPS:SHP:1,2016-01-01T14:12:00Z,30.0600,-84.2910,10.0,3.78,3.75,5.29,'1111122,1111122,1111122' 
COMPS,ioos:station:USF.COMPS:SHP:1,2016-01-01T14:18:00Z,30.0600,-84.2910,10.0,4.25,5.94,5.87,'1111122,1111122,1111122' 
COMPS,ioos:station:USF.COMPS:SHP:1,2016-01-01T14:24:00Z,30.0600,-84.2910,10.0,4.38,5.14,6.07,'1111122,1111122,1111122' 
COMPS,ioos:station:USF.COMPS:SHP:1,2016-01-01T14:30:00Z,30.0600,-84.2910,10.0,3.67,355.1,6.27,'1111122,1111122,1111122' 
COMPS,ioos:station:USF.COMPS:SHP:1,2016-01-01T14:36:00Z,30.0600,-84.2910,10.0,3.76,358.82,6.17,'1111122,1111122,1111122' 
COMPS,ioos:station:USF.COMPS:SHP:1,2016-01-01T14:42:00Z,30.0600,-84.2910,10.0,3.85,358.06,5.19,'1111122,1111122,1111122' 
COMPS,ioos:station:USF.COMPS:SHP:1,2016-01-01T14:48:00Z,30.0600,-84.2910,10.0,3.8,359.82,5.39,'1111122,1111122,1111122' 
COMPS,ioos:station:USF.COMPS:SHP:1,2016-01-01T14:54:00Z,30.0600,-84.2910,10.0,3.94,356.83,5.78,'1111122,1111122,1111122' 
COMPS,ioos:station:USF.COMPS:SHP:1,2016-01-01T15:00:00Z,30.0600,-84.2910,10.0,3.9,358.46,5.19,'1111122,1111122,1111122' 
COMPS,ioos:station:USF.COMPS:SHP:1,2016-01-01T15:06:00Z,30.0600,-84.2910,10.0,4.23,5.58,6.07,'1111122,1111122,1111122' 
COMPS,ioos:station:USF.COMPS:SHP:1,2016-01-01T15:12:00Z,30.0600,-84.2910,10.0,3.08,5.27,4.9,'1111122,1111122,1111122' 
COMPS,ioos:station:USF.COMPS:SHP:1,2016-01-01T15:18:00Z,30.0600,-84.2910,10.0,3.1,14.14,4.8,'1111122,1111122,1111122' 
COMPS,ioos:station:USF.COMPS:SHP:1,2016-01-01T15:24:00Z,30.0600,-84.2910,10.0,3.13,359.46,4.6,'1111122,1111122,1111122' 
COMPS,ioos:station:USF.COMPS:SHP:1,2016-01-01T15:30:00Z,30.0600,-84.2910,10.0,3.54,356.41,4.8,'1111122,1111122,1111122' 
COMPS,ioos:station:USF.COMPS:SHP:1,2016-01-01T15:36:00Z,30.0600,-84.2910,10.0,3.45,1.68,4.8,'1111122,1111122,1111122' 
COMPS,ioos:station:USF.COMPS:SHP:1,2016-01-01T15:42:00Z,30.0600,-84.2910,10.0,4.36,8.01,6.17,'1111122,1111122,1111122' 
COMPS,ioos:station:USF.COMPS:SHP:1,2016-01-01T15:48:00Z,30.0600,-84.2910,10.0,3.82,8.39,5.29,'1111122,1111122,1111122' 
COMPS,ioos:station:USF.COMPS:SHP:1,2016-01-01T15:54:00Z,30.0600,-84.2910,10.0,4.87,6.57,6.66,'1111122,1111122,1111122' 
COMPS,ioos:station:USF.COMPS:SHP:1,2016-01-01T16:00:00Z,30.0600,-84.2910,10.0,4.4,356.7,6.37,'1111122,1111122,1111122' 
COMPS,ioos:station:USF.COMPS:SHP:1,2016-01-01T16:06:00Z,30.0600,-84.2910,10.0,4.92,346.88,8.62,'1111122,1111122,1111122' 
COMPS,ioos:station:USF.COMPS:SHP:1,2016-01-01T16:12:00Z,30.0600,-84.2910,10.0,3.99,349.01,6.07,'1111122,1111122,1111122' 
COMPS,ioos:station:USF.COMPS:SHP:1,2016-01-01T16:18:00Z,30.0600,-84.2910,10.0,4.43,355.16,5.97,'1111122,1111122,1111122' 
COMPS,ioos:station:USF.COMPS:SHP:1,2016-01-01T16:24:00Z,30.0600,-84.2910,10.0,4.81,355.22,6.76,'1111122,1111122,1111122' 
COMPS,ioos:station:USF.COMPS:SHP:1,2016-01-01T16:30:00Z,30.0600,-84.2910,10.0,4.18,352.05,6.76,'1111122,1111122,1111122' 
COMPS,ioos:station:USF.COMPS:SHP:1,2016-01-01T16:36:00Z,30.0600,-84.2910,10.0,4.14,352.38,5.97,'1111122,1111122,1111122' 
COMPS,ioos:station:USF.COMPS:SHP:1,2016-01-01T16:42:00Z,30.0600,-84.2910,10.0,5.27,354.81,8.03,'1111122,1111122,1111122' 
COMPS,ioos:station:USF.COMPS:SHP:1,2016-01-01T16:48:00Z,30.0600,-84.2910,10.0,5.13,5.42,7.44,'1111122,1111122,1111122' 
COMPS,ioos:station:USF.COMPS:SHP:1,2016-01-01T16:54:00Z,30.0600,-84.2910,10.0,4.79,353.63,8.82,'1111122,1111122,1111122' 
COMPS,ioos:station:USF.COMPS:SHP:1,2016-01-01T17:00:00Z,30.0600,-84.2910,10.0,4.25,359.99,5.78,'1111122,1111122,1111122' 
COMPS,ioos:station:USF.COMPS:SHP:1,2016-01-01T17:06:00Z,30.0600,-84.2910,10.0,5.12,352.02,7.25,'1111122,1111122,1111122' 
COMPS,ioos:station:USF.COMPS:SHP:1,2016-01-01T17:12:00Z,30.0600,-84.2910,10.0,5.83,342.18,9.8,'1111122,1111122,1111122' 
COMPS,ioos:station:USF.COMPS:SHP:1,2016-01-01T17:18:00Z,30.0600,-84.2910,10.0,6.04,353.51,9.5,'1111122,1111122,1111122' 
COMPS,ioos:station:USF.COMPS:SHP:1,2016-01-01T17:24:00Z,30.0600,-84.2910,10.0,5.19,358.15,7.35,'1111122,1111122,1111122' 
COMPS,ioos:station:USF.COMPS:SHP:1,2016-01-01T17:30:00Z,30.0600,-84.2910,10.0,5.12,353.0,7.74,'1111122,1111122,1111122' 
COMPS,ioos:station:USF.COMPS:SHP:1,2016-01-01T17:36:00Z,30.0600,-84.2910,10.0,5.06,346.19,8.33,'1111122,1111122,1111122' 
COMPS,ioos:station:USF.COMPS:SHP:1,2016-01-01T17:42:00Z,30.0600,-84.2910,10.0,5.13,349.37,6.66,'1111122,1111122,1111122' 
COMPS,ioos:station:USF.COMPS:SHP:1,2016-01-01T17:48:00Z,30.0600,-84.2910,10.0,4.75,353.06,7.35,'1111122,1111122,1111122' 
COMPS,ioos:station:USF.COMPS:SHP:1,2016-01-01T17:54:00Z,30.0600,-84.2910,10.0,5.64,353.07,8.52,'1111122,1111122,1111122' 
COMPS,ioos:station:USF.COMPS:SHP:1,2016-01-02T04:00:00Z,30.0600,-84.2910,10.0,3.22,356.45,5.09,'1111122,1111122,1111122' 
COMPS,ioos:station:USF.COMPS:SHP:1,2016-01-02T04:06:00Z,30.0600,-84.2910,10.0,3.68,352.47,5.58,'1111122,1111122,1111122' 
COMPS,ioos:station:USF.COMPS:SHP:1,2016-01-02T04:12:00Z,30.0600,-84.2910,10.0,3.75,348.73,6.17,'1111122,1111122,1111122' 
COMPS,ioos:station:USF.COMPS:SHP:1,2016-01-02T04:18:00Z,30.0600,-84.2910,10.0,4.26,353.27,5.97,'1111122,1111122,1111122' 
COMPS,ioos:station:USF.COMPS:SHP:1,2016-01-02T04:24:00Z,30.0600,-84.2910,10.0,3.86,353.39,5.39,'1111122,1111122,1111122' 
COMPS,ioos:station:USF.COMPS:SHP:1,2016-01-02T04:30:00Z,30.0600,-84.2910,10.0,4.6,356.37,7.64,'1111122,1111122,1111122' 
COMPS,ioos:station:USF.COMPS:SHP:1,2016-01-02T04:36:00Z,30.0600,-84.2910,10.0,4.88,357.55,6.56,'1111122,1111122,1111122' 
COMPS,ioos:station:USF.COMPS:SHP:1,2016-01-02T04:42:00Z,30.0600,-84.2910,10.0,4.18,349.77,5.68,'1111122,1111122,1111122' 
COMPS,ioos:station:USF.COMPS:SHP:1,2016-01-02T04:48:00Z,30.0600,-84.2910,10.0,4.42,352.42,6.46,'1111122,1111122,1111122' 
COMPS,ioos:station:USF.COMPS:SHP:1,2016-01-02T04:54:00Z,30.0600,-84.2910,10.0,4.29,348.16,7.74,'1111122,1111122,1111122' 
COMPS,ioos:station:USF.COMPS:SHP:1,2016-01-02T05:00:00Z,30.0600,-84.2910,10.0,4.61,350.83,6.27,'1111122,1111122,1111122' 
COMPS,ioos:station:USF.COMPS:SHP:1,2016-01-02T05:06:00Z,30.0600,-84.2910,10.0,4.12,0.34,8.03,'1111122,1111122,1111122' 
COMPS,ioos:station:USF.COMPS:SHP:1,2016-01-02T05:12:00Z,30.0600,-84.2910,10.0,4.65,356.05,6.95,'1111122,1111122,1111122' 
COMPS,ioos:station:USF.COMPS:SHP:1,2016-01-02T05:18:00Z,30.0600,-84.2910,10.0,4.79,357.2,7.64,'1111122,1111122,1111122' 
COMPS,ioos:station:USF.COMPS:SHP:1,2016-01-02T05:24:00Z,30.0600,-84.2910,10.0,4.06,358.66,6.27,'1111122,1111122,1111122' 
COMPS,ioos:station:USF.COMPS:SHP:1,2016-01-02T05:30:00Z,30.0600,-84.2910,10.0,4.34,348.99,6.17,'1111122,1111122,1111122' 
COMPS,ioos:station:USF.COMPS:SHP:1,2016-01-02T05:36:00Z,30.0600,-84.2910,10.0,3.9,1.13,5.68,'1111122,1111122,1111122' 
COMPS,ioos:station:USF.COMPS:SHP:1,2016-01-02T05:42:00Z,30.0600,-84.2910,10.0,3.61,359.55,5.39,'1111122,1111122,1111122' 
COMPS,ioos:station:USF.COMPS:SHP:1,2016-01-02T05:48:00Z,30.0600,-84.2910,10.0,3.61,7.29,5.48,'1111122,1111122,1111122' 
COMPS,ioos:station:USF.COMPS:SHP:1,2016-01-02T05:54:00Z,30.0600,-84.2910,10.0,3.38,4.95,4.41,'1111122,1111122,1111122' 
COMPS,ioos:station:USF.COMPS:SHP:1,2016-01-02T06:00:00Z,30.0600,-84.2910,10.0,3.37,1.48,4.31,'1111122,1111122,1111122' 
COMPS,ioos:station:USF.COMPS:SHP:1,2016-01-02T06:06:00Z,30.0600,-84.2910,10.0,3.1,354.71,5.19,'1111122,1111122,1111122' 
COMPS,ioos:station:USF.COMPS:SHP:1,2016-01-02T06:12:00Z,30.0600,-84.2910,10.0,3.56,351.8,5.58,'1111122,1111122,1111122' 
COMPS,ioos:station:USF.COMPS:SHP:1,2016-01-02T06:18:00Z,30.0600,-84.2910,10.0,3.11,0.59,4.8,'1111122,1111122,1111122' 
COMPS,ioos:station:USF.COMPS:SHP:1,2016-01-02T06:24:00Z,30.0600,-84.2910,10.0,3.56,352.0,5.19,'1111122,1111122,1111122' 
COMPS,ioos:station:USF.COMPS:SHP:1,2016-01-02T06:30:00Z,30.0600,-84.2910,10.0,3.08,348.47,4.6,'1111122,1111122,1111122' 
COMPS,ioos:station:USF.COMPS:SHP:1,2016-01-02T06:36:00Z,30.0600,-84.2910,10.0,2.78,359.92,3.92,'1111122,1111122,1111122' 
COMPS,ioos:station:USF.COMPS:SHP:1,2016-01-02T06:42:00Z,30.0600,-84.2910,10.0,3.46,349.91,4.99,'1111122,1111122,1111122' 
COMPS,ioos:station:USF.COMPS:SHP:1,2016-01-02T06:48:00Z,30.0600,-84.2910,10.0,3.37,352.23,5.58,'1111122,1111122,1111122' 
COMPS,ioos:station:USF.COMPS:SHP:1,2016-01-02T06:54:00Z,30.0600,-84.2910,10.0,3.48,356.98,5.58,'1111122,1111122,1111122' 
COMPS,ioos:station:USF.COMPS:SHP:1,2016-01-02T07:00:00Z,30.0600,-84.2910,10.0,3.52,352.93,5.39,'1111122,1111122,1111122' 
COMPS,ioos:station:USF.COMPS:SHP:1,2016-01-02T07:06:00Z,30.0600,-84.2910,10.0,3.51,349.81,5.09,'1111122,1111122,1111122' 
COMPS,ioos:station:USF.COMPS:SHP:1,2016-01-02T07:12:00Z,30.0600,-84.2910,10.0,3.76,352.09,5.78,'1111122,1111122,1111122' 
COMPS,ioos:station:USF.COMPS:SHP:1,2016-01-02T07:18:00Z,30.0600,-84.2910,10.0,3.34,354.44,4.8,'1111122,1111122,1111122' 
COMPS,ioos:station:USF.COMPS:SHP:1,2016-01-02T07:24:00Z,30.0600,-84.2910,10.0,2.9,2.69,3.92,'1111122,1111122,1111122' 
COMPS,ioos:station:USF.COMPS:SHP:1,2016-01-02T07:30:00Z,30.0600,-84.2910,10.0,2.72,357.44,3.92,'1111122,1111122,1111122' 
COMPS,ioos:station:USF.COMPS:SHP:1,2016-01-02T07:36:00Z,30.0600,-84.2910,10.0,3.49,0.45,4.8,'1111122,1111122,1111122' 
COMPS,ioos:station:USF.COMPS:SHP:1,2016-01-02T07:42:00Z,30.0600,-84.2910,10.0,2.97,353.39,4.01,'1111122,1111122,1111122' 
COMPS,ioos:station:USF.COMPS:SHP:1,2016-01-02T07:48:00Z,30.0600,-84.2910,10.0,3.18,358.08,5.19,'1111122,1111122,1111122' 
COMPS,ioos:station:USF.COMPS:SHP:1,2016-01-02T07:54:00Z,30.0600,-84.2910,10.0,2.52,0.08,3.62,'1111122,1111122,1111122' 
COMPS,ioos:station:USF.COMPS:SHP:1,2016-01-02T08:00:00Z,30.0600,-84.2910,10.0,2.76,4.03,4.21,'1111122,1111122,1111122' 
COMPS,ioos:station:USF.COMPS:SHP:1,2016-01-02T08:06:00Z,30.0600,-84.2910,10.0,3.42,345.13,4.7,'1111122,1111122,1111122' 
COMPS,ioos:station:USF.COMPS:SHP:1,2016-01-02T08:12:00Z,30.0600,-84.2910,10.0,4.17,349.89,5.58,'1111122,1111122,1111122' 
COMPS,ioos:station:USF.COMPS:SHP:1,2016-01-02T08:18:00Z,30.0600,-84.2910,10.0,3.89,348.71,4.99,'1111122,1111122,1111122' 
COMPS,ioos:station:USF.COMPS:SHP:1,2016-01-02T08:24:00Z,30.0600,-84.2910,10.0,3.84,353.77,5.29,'1111122,1111122,1111122' 
COMPS,ioos:station:USF.COMPS:SHP:1,2016-01-02T08:30:00Z,30.0600,-84.2910,10.0,3.18,349.78,4.9,'1111122,1111122,1111122' 
COMPS,ioos:station:USF.COMPS:SHP:1,2016-01-02T08:36:00Z,30.0600,-84.2910,10.0,3.26,358.4,4.7,'1111122,1111122,1111122' 
COMPS,ioos:station:USF.COMPS:SHP:1,2016-01-02T08:42:00Z,30.0600,-84.2910,10.0,3.16,0.53,4.8,'1111122,1111122,1111122' 
COMPS,ioos:station:USF.COMPS:SHP:1,2016-01-02T08:48:00Z,30.0600,-84.2910,10.0,3.77,351.94,5.58,'1111122,1111122,1111122' 
COMPS,ioos:station:USF.COMPS:SHP:1,2016-01-02T08:54:00Z,30.0600,-84.2910,10.0,4.14,342.38,5.78,'1111122,1111122,1111122' 
COMPS,ioos:station:USF.COMPS:SHP:1,2016-01-02T09:00:00Z,30.0600,-84.2910,10.0,3.84,349.68,6.07,'1111122,1111122,1111122' 
COMPS,ioos:station:USF.COMPS:SHP:1,2016-01-02T09:06:00Z,30.0600,-84.2910,10.0,4.17,357.27,6.46,'1111122,1111122,1111122' 
COMPS,ioos:station:USF.COMPS:SHP:1,2016-01-02T09:12:00Z,30.0600,-84.2910,10.0,4.97,347.41,7.44,'1111122,1111122,1111122' 
COMPS,ioos:station:USF.COMPS:SHP:1,2016-01-02T09:18:00Z,30.0600,-84.2910,10.0,5.8,352.33,8.52,'1111122,1111122,1111122' 
COMPS,ioos:station:USF.COMPS:SHP:1,2016-01-02T09:24:00Z,30.0600,-84.2910,10.0,5.25,358.44,7.15,'1111122,1111122,1111122' 
COMPS,ioos:station:USF.COMPS:SHP:1,2016-01-02T09:30:00Z,30.0600,-84.2910,10.0,4.32,4.52,5.58,'1111122,1111122,1111122' 
COMPS,ioos:station:USF.COMPS:SHP:1,2016-01-02T09:36:00Z,30.0600,-84.2910,10.0,4.19,9.13,6.66,'1111122,1111122,1111122' 